Tiempo cada hora Dabrowa

Hoy, 4 Agosto, Miércoles

Tiempo Temperatura Precipitaciones Viento Presión Humedad
00:00 +16°C° 0.2 mm 1 mps 745 mmHg 80%
01:00 +16°C° 0 mm 1 mps 745 mmHg 82%
02:00 +16°C° 0 mm 1 mps 745 mmHg 82%
03:00 +16°C° 0 mm 1 mps 745 mmHg 81%
04:00 +16°C° 0 mm 2 mps 744 mmHg 81%
05:00 +16°C° 0.2 mm 2 mps 745 mmHg 84%
06:00 +16°C° 0.2 mm 2 mps 745 mmHg 86%
07:00 +16°C° 0.2 mm 2 mps 745 mmHg 89%
08:00 +16°C° 0.4 mm 2 mps 745 mmHg 89%
09:00 +16°C° 0.4 mm 2 mps 746 mmHg 88%
10:00 +16°C° 0.4 mm 2 mps 746 mmHg 88%
11:00 +18°C° 0 mm 2 mps 746 mmHg 81%
12:00 +19°C° 0 mm 2 mps 745 mmHg 74%
13:00 +20°C° 0 mm 3 mps 745 mmHg 67%
14:00 +21°C° 0.1 mm 2 mps 745 mmHg 63%
15:00 +23°C° 0.1 mm 2 mps 745 mmHg 59%
16:00 +23°C° 0.1 mm 2 mps 745 mmHg 55%
17:00 +21°C° 0 mm 2 mps 744 mmHg 59%
18:00 +21°C° 0 mm 1 mps 744 mmHg 64%
19:00 +20°C° 0 mm 1 mps 744 mmHg 68%
20:00 +20°C° 0 mm 1 mps 744 mmHg 72%
21:00 +19°C° 0 mm 1 mps 744 mmHg 75%
22:00 +18°C° 0 mm 1 mps 744 mmHg 78%
23:00 +16°C° 0 mm 1 mps 744 mmHg 79%

Mañana, 5 Agosto, Jueves

Tiempo Temperatura Precipitaciones Viento Presión Humedad
00:00 +16°C° 0 mm 1 mps 744 mmHg 80%
01:00 +16°C° 0 mm 1 mps 744 mmHg 82%
02:00 +16°C° 0 mm 1 mps 744 mmHg 83%
03:00 +15°C° 0 mm 1 mps 743 mmHg 84%
04:00 +15°C° 0 mm 1 mps 743 mmHg 85%
05:00 +16°C° 0 mm 1 mps 743 mmHg 81%
06:00 +18°C° 0 mm 1 mps 743 mmHg 77%
07:00 +18°C° 0 mm 2 mps 743 mmHg 74%
08:00 +19°C° 0 mm 2 mps 743 mmHg 70%
09:00 +20°C° 0 mm 2 mps 742 mmHg 66%
10:00 +21°C° 0 mm 3 mps 742 mmHg 62%
11:00 +20°C° 0.8 mm 2 mps 742 mmHg 71%
12:00 +19°C° 0.8 mm 2 mps 742 mmHg 79%
13:00 +18°C° 0.8 mm 2 mps 742 mmHg 88%
14:00 +17°C° 1.9 mm 2 mps 741 mmHg 90%
15:00 +17°C° 1.9 mm 3 mps 741 mmHg 92%
16:00 +17°C° 1.9 mm 3 mps 741 mmHg 94%
17:00 +16°C° 1.5 mm 3 mps 740 mmHg 95%
18:00 +16°C° 1.5 mm 3 mps 740 mmHg 95%
19:00 +16°C° 1.5 mm 3 mps 740 mmHg 96%
20:00 +15°C° 1.5 mm 4 mps 740 mmHg 96%
21:00 +15°C° 1.5 mm 4 mps 740 mmHg 96%
22:00 +15°C° 1.5 mm 4 mps 740 mmHg 97%
23:00 +15°C° 0.8 mm 4 mps 739 mmHg 97%

Pasado mañana, 6 Agosto, Viernes

Tiempo Temperatura Precipitaciones Viento Presión Humedad
00:00 +15°C° 0.8 mm 4 mps 739 mmHg 97%
01:00 +15°C° 0.8 mm 4 mps 739 mmHg 97%
02:00 +15°C° 1.6 mm 4 mps 739 mmHg 97%
03:00 +15°C° 1.6 mm 4 mps 739 mmHg 97%
04:00 +15°C° 1.6 mm 4 mps 739 mmHg 97%
05:00 +15°C° 1.3 mm 4 mps 739 mmHg 97%
06:00 +15°C° 1.3 mm 4 mps 740 mmHg 97%
07:00 +15°C° 1.3 mm 4 mps 740 mmHg 96%
08:00 +16°C° 0.1 mm 3 mps 740 mmHg 91%
09:00 +17°C° 0.1 mm 3 mps 740 mmHg 86%
10:00 +18°C° 0.1 mm 2 mps 741 mmHg 81%
11:00 +20°C° 0.2 mm 3 mps 741 mmHg 74%
12:00 +21°C° 0.2 mm 3 mps 741 mmHg 67%
13:00 +22°C° 0.2 mm 3 mps 741 mmHg 59%
14:00 +24°C° 0 mm 3 mps 741 mmHg 57%
15:00 +24°C° 0 mm 2 mps 741 mmHg 55%
16:00 +24°C° 0 mm 2 mps 741 mmHg 53%
17:00 +23°C° 0 mm 2 mps 741 mmHg 58%
18:00 +21°C° 0 mm 2 mps 741 mmHg 64%
19:00 +20°C° 0 mm 2 mps 741 mmHg 70%
20:00 +19°C° 0 mm 2 mps 741 mmHg 73%
21:00 +18°C° 0 mm 2 mps 742 mmHg 76%
22:00 +17°C° 0 mm 2 mps 742 mmHg 79%
23:00 +17°C° 0 mm 2 mps 742 mmHg 81%

7 Agosto, Sábado

Tiempo Temperatura Precipitaciones Viento Presión Humedad
00:00 +16°C° 0 mm 2 mps 742 mmHg 82%
01:00 +16°C° 0 mm 2 mps 742 mmHg 84%
02:00 +16°C° 0 mm 2 mps 742 mmHg 85%
03:00 +16°C° 0 mm 2 mps 742 mmHg 86%
04:00 +15°C° 0 mm 1 mps 742 mmHg 87%
05:00 +18°C° 0 mm 1 mps 742 mmHg 82%
06:00 +19°C° 0 mm 1 mps 743 mmHg 78%
07:00 +20°C° 0 mm 1 mps 743 mmHg 73%
08:00 +22°C° 0 mm 1 mps 743 mmHg 67%
09:00 +24°C° 0 mm 1 mps 743 mmHg 62%
10:00 +25°C° 0 mm 1 mps 743 mmHg 56%
11:00 +26°C° 0 mm 1 mps 743 mmHg 52%
12:00 +27°C° 0 mm 2 mps 743 mmHg 48%
13:00 +28°C° 0 mm 2 mps 742 mmHg 45%
14:00 +28°C° 0 mm 2 mps 742 mmHg 44%
15:00 +28°C° 0 mm 2 mps 742 mmHg 43%
16:00 +29°C° 0 mm 2 mps 742 mmHg 41%
17:00 +27°C° 0 mm 2 mps 742 mmHg 48%
18:00 +25°C° 0 mm 2 mps 742 mmHg 55%
19:00 +24°C° 0 mm 2 mps 741 mmHg 61%
20:00 +23°C° 0 mm 2 mps 741 mmHg 63%
21:00 +21°C° 0 mm 3 mps 741 mmHg 65%
22:00 +21°C° 0 mm 3 mps 741 mmHg 66%
23:00 +20°C° 0 mm 4 mps 741 mmHg 68%

8 Agosto, Domingo

Tiempo Temperatura Precipitaciones Viento Presión Humedad
00:00 +20°C° 0 mm 4 mps 740 mmHg 70%
01:00 +20°C° 0 mm 4 mps 740 mmHg 72%
02:00 +20°C° 0 mm 4 mps 740 mmHg 70%
03:00 +20°C° 0 mm 4 mps 740 mmHg 68%
04:00 +20°C° 0 mm 4 mps 740 mmHg 65%
05:00 +20°C° 0 mm 5 mps 741 mmHg 68%
06:00 +20°C° 0 mm 6 mps 742 mmHg 71%
07:00 +20°C° 0 mm 6 mps 742 mmHg 74%
08:00 +20°C° 0 mm 6 mps 743 mmHg 70%
09:00 +21°C° 0 mm 5 mps 744 mmHg 66%
10:00 +22°C° 0 mm 5 mps 745 mmHg 62%
11:00 +23°C° 0 mm 5 mps 745 mmHg 57%
12:00 +25°C° 0 mm 4 mps 745 mmHg 52%
13:00 +26°C° 0 mm 4 mps 746 mmHg 46%
14:00 +26°C° 0 mm 4 mps 746 mmHg 47%
15:00 +26°C° 0 mm 5 mps 746 mmHg 47%
16:00 +26°C° 0 mm 5 mps 747 mmHg 47%
17:00 +23°C° 0 mm 4 mps 747 mmHg 53%
18:00 +22°C° 0 mm 3 mps 747 mmHg 58%
19:00 +21°C° 0 mm 2 mps 747 mmHg 63%
20:00 +20°C° 0 mm 2 mps 748 mmHg 64%
21:00 +19°C° 0 mm 2 mps 748 mmHg 65%
22:00 +19°C° 0 mm 2 mps 748 mmHg 66%
23:00 +18°C° 0 mm 2 mps 749 mmHg 68%

9 Agosto, Lunes

Tiempo Temperatura Precipitaciones Viento Presión Humedad
00:00 +18°C° 0 mm 2 mps 749 mmHg 70%
01:00 +17°C° 0 mm 2 mps 749 mmHg 72%
02:00 +18°C° 0 mm 1 mps 749 mmHg 73%
03:00 +16°C° 0 mm 1 mps 749 mmHg 75%
04:00 +16°C° 0 mm 1 mps 749 mmHg 77%
05:00 +18°C° 0 mm 1 mps 749 mmHg 73%
06:00 +19°C° 0 mm 1 mps 749 mmHg 69%
07:00 +21°C° 0 mm 1 mps 750 mmHg 64%
08:00 +22°C° 0 mm 1 mps 750 mmHg 58%
09:00 +24°C° 0 mm 1 mps 750 mmHg 52%
10:00 +26°C° 0 mm 1 mps 750 mmHg 47%
11:00 +27°C° 0 mm 2 mps 750 mmHg 43%
12:00 +28°C° 0 mm 2 mps 749 mmHg 40%
13:00 +29°C° 0 mm 2 mps 749 mmHg 36%
14:00 +29°C° 0 mm 2 mps 749 mmHg 36%
15:00 +29°C° 0 mm 3 mps 749 mmHg 36%
16:00 +29°C° 0 mm 3 mps 748 mmHg 36%
17:00 +27°C° 0.1 mm 2 mps 748 mmHg 43%
18:00 +25°C° 0.1 mm 2 mps 748 mmHg 51%
19:00 +23°C° 0.1 mm 2 mps 748 mmHg 59%
20:00 +22°C° 0.4 mm 1 mps 748 mmHg 64%
21:00 +21°C° 0.4 mm 1 mps 748 mmHg 69%
22:00 +19°C° 0.4 mm 1 mps 748 mmHg 74%
23:00 +19°C° 0.8 mm 1 mps 748 mmHg 78%
Mostrar más

Necesitamos Su Consentimiento

Meteoprog y nuestros Proveedores de Servicios pueden almacenar y acceder a sus datos personales como cookies, identificadores de dispositivo u otras tecnologías similares de su dispositivo y procesar dichos datos para personalizar contenido y anuncios, además de ofrecer funciones de redes sociales y analizar el tráfico.

  • Almacenar y/o acceder a información en su dispositivo

    Se puede almacenar o acceder a cookies, identificadores de dispositivo u otra información de su dispositivo para los fines anteriormente indicados.

  • Anuncios y contenido personalizados, medición de anuncios y contenido, percepciones del público, y desarrollo de productos

    Los anuncios y el contenido pueden personalizarse en base a su perfil. Se pueden añadir más datos para personalizar mejor los anuncios y contenidos. Se puede medir el rendimiento de los anuncios y contenidos. Se puede obtener la percepción sobre el público que ha visto los anuncios y contenidos. Dichos datos pueden usarse para desarrollar o mejorar la experiencia del usuario, sistemas y software.

Al hacer clic en ‘Estoy De Acuerdo’ usted permitirá el uso de las cookies, identificadores de dispositivo, balizas web u otras tecnologías similares indicadas. Su configuración puede cambiarse desde el navegador de su dispositivo.

Para ciertos fines, los intereses legítimos pueden ser considerados por encima del consentimiento. Puede leer más sobre ello en nuestra Política de Privacidad y Cookies.